Kuchera_Ratio
0.0 0.0 0.0 0.0 0.0 0.0 0.0 0.0 0.0 0.0 0.0 0.0 0.0 0.0 3.2 1.1 0.0 0.0 1.3 2.9 3.1 3.9 3.4 5.6 4.6 6.3 2.6 0.0 2.4 8.8 5.5 12.7 15.4 14.2 18.1 18.8 17.4 16.2 16.2 17.6 19.1 18.1 20.0 16.1
0.0 0.0 0.0 0.0 0.0 0.0 0.0 0.0 0.0 0.0 0.0 0.0 0.0 0.0 1.7 1.1 1.8 0.9 2.3 3.4 1.6 1.3 5.9 10.8 2.6 2.7 1.7 0.7 4.4 9.0 6.5 12.6 16.3 16.4 19.6 18.1 18.5 17.1 16.2 18.5 17.7 17.7 17.7 13.7
0.0 0.0 0.0 0.0 0.0 0.0 0.0 0.0 0.0 0.0 0.0 0.0 1.8 6.1 3.2 4.0 0.0 2.6 2.3 2.8 1.8 5.4 6.7 2.3 8.3 6.8 3.4 3.6 4.7 4.1 5.1 11.5 13.6 15.4 12.1 12.6 17.9 17.1 18.0 18.1 18.2 16.2 16.0 13.9
0.0 0.0 0.0 0.0 0.0 0.0 0.0 0.0 0.0 1.1 0.2 0.0 0.4 4.9 5.1 5.8 6.5 1.1 1.2 4.2 5.9 7.4 13.1 8.5 8.8 4.6 4.3 3.9 4.7 6.2 7.9 16.5 13.5 12.6 11.4 11.4 12.6 13.2 16.0 21.3 17.6 17.5 14.6 14.3
0.0 0.0 0.0 0.0 0.0 0.0 0.0 0.0 0.2 0.0 0.0 0.0 0.0 4.7 3.8 7.6 4.5 5.3 6.4 9.3 5.1 4.5 12.2 11.7 14.2 10.9 9.9 10.7 5.0 10.0 7.2 16.8 14.3 17.2 13.1 12.5 14.6 12.6 12.4 14.3 18.4 17.5 16.6 16.9
0.0 0.0 0.0 0.0 0.0 0.0 0.0 0.0 0.0 0.0 0.0 0.5 3.9 2.1 3.8 6.2 3.3 1.3 1.5 4.2 8.0 10.7 7.6 6.1 4.3 3.8 4.9 6.2 9.9 12.1 13.0 16.0 16.7 19.3 12.7 14.0 17.0 13.1 12.2 12.7 12.0 16.2 19.5 14.6
0.0 0.0 0.0 0.0 0.0 0.0 0.0 0.0 0.0 3.2 4.5 2.7 3.8 3.0 3.4 5.9 5.4 8.9 3.9 3.0 8.4 5.5 1.7 2.0 2.3 4.9 8.8 10.0 10.9 9.4 14.4 15.8 17.1 19.6 16.4 22.5 12.0 3.1 7.8 11.3 8.6 11.5 13.1 11.9
0.0 0.0 0.0 0.0 0.0 0.0 0.0 0.0 0.0 2.5 9.9 3.0 3.6 4.2 4.7 4.8 1.9 5.4 5.7 3.8 3.6 1.6 6.6 13.2 14.6 11.3 14.7 15.5 14.5 14.2 12.6 15.8 19.6 21.2 19.2 15.1 12.1 12.6 13.0 14.0 12.9 3.3 10.8 9.3
0.0 0.0 0.0 0.0 0.0 0.0 0.0 0.0 0.0 2.1 9.4 3.9 2.0 7.1 5.6 10.8 10.0 7.4 9.0 3.2 1.1 4.0 10.6 14.1 18.8 19.0 16.0 16.2 15.2 14.1 15.0 15.4 18.6 19.0 22.9 22.6 14.6 12.1 8.5 8.7 15.5 6.1 6.3 12.6
0.0 0.0 0.0 0.0 0.0 0.0 0.0 0.0 0.0 2.6 10.5 1.0 3.3 10.7 11.8 8.0 10.5 12.4 10.2 9.2 9.7 5.8 14.6 16.5 18.2 18.3 14.7 18.7 18.9 17.9 17.4 18.5 21.3 20.5 21.5 17.6 12.4 12.9 9.8 19.0 18.0 12.1 8.7 12.2
0.0 0.0 0.0 0.0 0.0 0.0 0.0 0.0 0.0 2.2 8.1 3.9 2.0 6.8 10.7 9.1 9.7 13.9 9.0 11.3 10.6 12.2 16.0 17.2 17.0 18.1 16.1 18.0 15.2 18.0 19.2 20.0 20.3 19.9 21.7 22.7 10.3 12.5 17.5 13.6 11.5 8.4 9.0 9.4
0.0 0.0 0.0 0.0 0.0 0.0 0.0 0.6 0.0 0.0 7.5 3.9 1.7 3.6 6.0 6.8 6.9 10.6 7.8 12.2 12.0 12.8 15.3 15.5 15.6 17.7 15.8 17.5 20.3 17.2 19.9 17.6 19.5 18.7 17.3 12.4 9.7 12.9 10.5 11.0 13.7 12.2 11.6 9.9
0.0 0.0 0.0 0.0 0.0 0.0 0.0 0.0 0.6 5.5 7.5 3.5 3.4 5.5 2.1 1.7 2.6 1.8 12.8 8.2 12.6 12.3 12.6 14.8 15.3 18.7 14.3 19.3 18.6 18.2 15.1 14.4 17.4 18.1 14.1 14.1 13.3 12.7 10.1 9.5 12.0 12.2 11.6 11.0
0.0 0.0 0.0 0.0 0.0 0.0 0.0 1.7 4.1 3.2 6.4 10.9 8.6 1.4 4.0 1.4 3.0 4.5 5.4 11.2 11.8 13.1 12.6 15.4 16.0 17.6 14.1 17.0 17.6 18.3 14.7 15.0 16.7 16.7 14.2 14.6 12.2 13.0 13.5 12.9 13.0 13.7 12.4 12.5
0.0 0.0 0.0 0.0 0.0 0.0 0.0 0.5 2.4 2.6 9.0 11.3 6.3 0.0 1.2 3.1 4.1 6.3 7.0 10.6 14.2 13.9 15.5 16.5 17.1 14.8 16.8 15.2 17.3 17.5 15.0 16.7 18.4 18.9 15.3 15.6 14.9 13.6 13.3 14.1 14.5 14.1 14.2 13.5
0.0 0.0 0.0 0.0 0.0 0.0 0.0 6.2 0.4 0.0 5.7 10.4 12.2 1.3 4.3 3.3 4.6 8.0 12.5 12.3 13.7 14.2 15.6 16.0 15.4 17.8 17.9 18.9 18.9 14.1 13.1 13.5 14.0 15.8 14.0 13.6 13.5 13.3 12.4 13.1 12.9 12.6 12.4 12.3
0.0 0.0 0.0 0.0 0.0 0.0 3.0 8.2 4.5 0.0 2.9 9.6 12.2 8.8 4.1 7.5 8.3 10.0 12.2 13.4 13.9 14.4 15.3 16.3 16.5 16.0 16.4 17.3 19.9 14.5 13.4 13.5 13.6 13.1 13.7 14.8 13.5 15.2 13.3 12.7 12.7 11.3 11.8 11.9
0.0 0.0 0.0 0.0 0.0 0.0 2.0 1.7 0.0 0.0 4.2 6.5 13.3 12.1 8.0 9.3 10.0 12.6 12.2 14.3 13.9 14.7 15.9 15.6 16.8 15.6 16.1 19.9 15.3 13.9 13.3 13.2 13.5 13.4 13.1 13.9 13.3 13.4 13.5 12.7 13.0 13.7 13.7 12.9
0.0 0.0 0.0 0.0 0.0 3.3 3.2 0.1 1.2 2.1 5.7 12.5 12.1 14.8 16.0 6.0 7.8 11.1 13.3 13.8 16.4 15.4 17.2 16.5 17.3 16.8 20.1 15.7 15.2 15.5 14.2 14.9 14.6 13.7 14.2 13.6 14.4 14.2 13.8 13.4 14.2 15.1 14.7 13.5
0.0 0.0 0.4 6.7 4.1 0.0 0.1 3.8 7.9 8.4 9.8 10.1 12.6 11.3 14.1 12.4 11.4 13.1 15.4 14.6 17.0 19.3 17.2 16.9 19.6 18.3 14.4 14.4 13.8 12.8 12.5 13.3 13.3 15.0 16.3 15.3 15.3 14.6 14.0 14.1 13.2 13.6 14.1 13.5
0.1 5.6 6.8 4.4 1.6 3.5 8.1 12.8 13.3 12.9 14.1 12.1 10.7 12.6 14.3 11.4 16.4 16.2 16.1 18.4 17.3 21.0 18.9 19.9 18.7 19.0 15.4 13.0 13.4 11.9 11.7 11.2 11.8 12.8 13.2 12.3 13.1 14.3 14.4 14.4 14.0 13.8 13.9 14.5
0.6 3.1 3.3 2.3 8.0 12.1 14.5 14.8 13.9 14.2 14.2 11.5 12.9 12.6 12.7 14.0 14.4 17.1 17.1 19.4 19.3 22.0 18.4 20.5 21.3 15.8 13.8 14.3 13.0 12.5 13.0 14.2 14.1 13.1 13.1 12.6 13.4 13.8 14.5 15.3 15.1 14.8 15.1 14.7
2.3 6.8 12.3 12.6 13.3 16.6 15.6 17.0 15.0 15.1 12.4 11.5 12.0 13.9 13.0 15.2 15.3 17.6 19.0 21.4 21.0 18.3 21.4 20.7 17.3 14.8 14.0 13.0 14.3 15.1 13.9 14.4 14.8 14.9 14.5 14.6 15.1 14.8 15.4 16.2 15.2 15.8 16.2 15.1
10.9 14.5 16.9 15.8 15.3 14.5 12.6 11.6 11.2 8.7 11.2 10.5 12.3 14.1 14.8 14.5 16.8 17.4 20.9 18.1 20.1 21.9 23.2 21.1 15.4 14.8 13.9 15.3 14.7 16.5 17.3 16.5 17.1 16.8 16.4 16.5 16.8 16.7 16.1 16.3 16.7 17.5 17.7 16.3
11.5 14.3 16.7 16.2 12.9 13.6 13.0 14.5 14.2 12.2 12.3 13.1 14.1 15.4 15.6 16.4 18.5 17.9 19.6 21.6 22.5 20.1 19.9 15.9 14.3 14.0 16.5 16.6 17.1 18.1 18.4 18.3 18.3 17.9 18.0 17.8 17.2 17.9 18.2 17.6 17.7 18.1 17.9 17.4
12.3 13.3 15.4 13.5 15.7 13.5 15.0 15.0 14.3 11.3 13.2 13.8 14.1 17.0 19.2 19.4 18.8 21.1 21.4 21.6 21.6 17.5 15.5 13.7 13.2 16.2 17.1 18.3 18.5 17.8 18.1 18.9 19.0 18.3 18.1 17.6 18.2 19.0 18.7 18.1 18.6 18.9 19.0 18.9
13.5 14.4 12.3 13.4 13.9 14.7 12.3 10.8 10.8 11.0 13.4 15.2 16.0 19.4 19.1 19.4 20.7 21.1 18.4 19.9 16.0 15.3 14.3 13.5 15.4 17.2 18.9 19.0 18.5 18.5 19.2 19.4 19.1 19.2 19.2 18.5 18.1 17.8 18.3 19.8 19.2 19.4 19.4 19.4